Home > Weather > Qatif > Past weeks

Flag for Saudi Arabia Past Weather in Qatif, Saudi Arabia — Yesterday and Last 2 Weeks

Now
115 °F

Sunny.


Feels Like: 108 °F
Forecast: 83 / 112 °F
Wind: 22 mph from North

Location: King Fahd International Airport

Current Time: Jun 27, 2016 at 4:07:13 PM

Latest Report: Jun 27, 2016 at 3:00 PM


Visibility: 10 mi

Pressure: 29.45 "Hg

Humidity: 8%

Dew Point: 39 °F

Location of QatifLocation

Past Weather in Qatif — Graph

°F

Qatif Temperature Yesterday

Maximum temperature yesterday: 113 °F (at 2:00 PM)
Minimum temperature yesterday: 88 °F (at 3:00 AM)
Average temperature yesterday: 99 °F

High & Low Weather Summary for the Past Weeks

 TemperatureHumidityPressure
High115 °F (Jun 24, 1:00 PM)62% (Jun 27, 3:00 AM)29.71 "Hg (Jun 27, 3:00 AM)
Low77 °F (Jun 14, 4:00 AM)5% (Jun 15, 11:00 AM)29.42 "Hg (Jun 24, 4:00 PM)
Average96 °F18%29.55 "Hg
* Reported Jun 12 3:00 PM — Jun 27 3:00 PM, Qatif, Weather by CustomWeather, © 2016

Note: Actual official high and low records may vary slightly from our data, if they occured in-between our weather recording intervals... More about our weather records

Advertising

Qatif Weather History for the Previous 24 Hours

Scroll right to see more
 ConditionsComfort  
Time TempWeatherWind HumidityBarometerVisibility
3:00 PM
Mon, Jun 27
115 °FSunny.22 mph8%29.45 "Hg10 mi
2:00 PM115 °FSunny.22 mph8%29.45 "Hg10 mi
11:00 AM113 °FSunny.14 mph9%29.47 "Hg10 mi
10:00 AM108 °FSunny.15 mph10%29.50 "Hg10 mi
9:00 AM104 °FSunny.12 mph12%29.50 "Hg10 mi
7:00 AM90 °FSunny.8 mph41%29.53 "Hg10 mi
6:00 AM84 °FSunny.5 mph58%29.47 "Hg10 mi
5:00 AM84 °FSunny.8 mph58%29.47 "Hg10 mi
4:00 AM84 °FClear.8 mph62%29.47 "Hg10 mi
3:00 AM84 °FClear.5 mph62%29.47 "Hg10 mi
12:00 AM90 °FClear.6 mph52%29.47 "Hg4 mi
11:00 PM
Sun, Jun 26
91 °FClear.No wind52%29.47 "Hg6 mi
9:00 PM93 °FClear.5 mph53%29.50 "Hg10 mi
8:00 PM97 °FClear.12 mph32%29.47 "Hg10 mi
7:00 PM102 °FClear.15 mph20%29.47 "Hg3 mi
6:00 PM109 °FSunny.12 mph10%29.45 "Hg4 mi
5:00 PM111 °FSunny.15 mph9%29.45 "Hg10 mi
4:00 PM113 °FSunny.15 mph9%29.45 "Hg10 mi
Weather by CustomWeather, © 2016

See weather overviewHow to use our weather pages